Regional Weather Roundup
Issued by NWS Newport/Morehead, NC

Current Version | Previous Version | Graphics & Text | Print | Product List | Glossary On
Versions: 1 2 3 4 5 6 7 8 9 10 11 12 13 14 15 16 17 18 19 20 21 22 23 24 25 26 27 28 29 30 31 32 33 34 35 36 37 38 39 40 41 42 43 44 45 46 47 48 49 50
693 ASUS42 KMHX 240525 RWRMHX WEATHER ROUNDUP FOR EASTERN NORTH CAROLINA NATIONAL WEATHER SERVICE NEWPORT/MOREHEAD CITY NC 1200 AM EST TUE JAN 24 2017 NOTE: "FAIR" INDICATES FEW OR NO CLOUDS BELOW 12,000 FEET WITH NO SIGNIFICANT WEATHER AND/OR OBSTRUCTIONS TO VISIBILITY NCZ015>017-031-032-045>047-102-103-240600- NORTH COAST CITY SKY/WX TMP DP RH WIND PRES REMARKS EDENTON CLOUDY 49 46 88 NW18 29.36R ELIZABETH CITY CLOUDY 48 46 93 NW13 29.32S KITTY HAWK NOT AVBL MANTEO CLOUDY 49 48 99 NW9G17 29.30S $$ NCZ045>047-081-094-103-104-240600- CENTRAL COAST CITY SKY/WX TMP DP RH WIND PRES REMARKS FRISCO MOCLDY 54 51 90 NW9G21 29.30R $$ NCZ095-097-098-100-101-240600- SOUTHERN COAST CITY SKY/WX TMP DP RH WIND PRES REMARKS BEAUFORT CLOUDY 54 51 90 NW15 29.36R CEDAR ISLAND NOT AVBL JACKSONVILLE CLOUDY 51 49 92 NW14 29.39R PINEY ISLAND CLOUDY N/A N/A N/A W21G28 29.34R WILMINGTON MOCLDY 51 50 96 W8 29.41S $$ NCZ011>013-027>030-043-044-078>080-089-090>093-098-240600- COASTAL PLAIN CITY SKY/WX TMP DP RH WIND PRES REMARKS AHOSKIE N/A 44 41 91 NW5 29.41R CLINTON CLOUDY 49 45 86 NW9G16 29.46R ELIZABETHTOWN CLOUDY 50 46 83 NW6 29.45R GOLDSBORO CLOUDY 48 46 94 NW10G18 29.42R GREENVILLE CLOUDY 46 43 87 NW9G17 29.46R HAVELOCK CLOUDY 51 48 89 NW14G24 29.38R KENANSVILLE CLOUDY 48 45 87 N9 29.43S KINSTON CLOUDY 48 44 85 NW10G20 29.43R NEW BERN CLOUDY 50 46 86 NW13G21 29.39R RICHLANDS CLOUDY 49 47 93 VRB6 29.41S ROCKY MOUNT MOCLDY 43 39 86 N15G24 29.43F WASHINGTON CLOUDY 46 44 91 NW10 N/A FOG WHITEVILLE CLOUDY 51 47 86 W6 29.45R $$ AMZ130-135-150-152-154-156-158-170-250-252-270-ANZ085-086-088-633-658-670-240600- MARINE OBSERVATIONS STATION/POSITION TIME TEMP WIND PRES WAVE SWELL AIR SEA DIR/SP/G HT/PER HT/PER (UTC) (F) (DEG/KT/KT) (MB) (FT/S) (FT/S) CHESAPEAKE LIGHT NOT AVBL 64 E VA BEACH 0450 49 53 270/ 16/ 21 989.4 13/11 11/11 DUCK 0500 49 46 320/ 18/ 24 991.4 2 E DUCK 0500 47 N/A 8/11 5/11 OREGON INLET 0500 49 50 300/ 14/ 21 991.8 13E OREGON INLT NOT AVBL HATTERAS CG 0500 53 57 290/ 17/ 19 991.7 DIAMOND BUOY 0450 58 75 300/ 27/ 31 991.1 8/11 7/11 CAPE LOOKOUT 0500 54 290/ 18/ 25 993.5 BEAUFORT LAB 0500 53 53 310/ 6/ 16 993.1 30 SE NEW RVR IN 0508 56 67 300/ 21/ 27 994.6 30 SE NEW RVR IN 0513 67 N/A 7/10 2/11 27 SE WRIGHTSVLE 0508 57 67 290/ 19/ 29 992.9 5 SE WRIGHTSVLE 0508 53 55 300/ 17/ 23 995.5 225 S CAPE HAT 0450 67 71 280/ 23/ 33 994.9 15/10 10/10 41 SE CHARLESTON 0450 61 68 300/ 25/ 29 998.2 8/ 8 5/ 8 $$

USA.gov is the U.S. government's official web portal to all federal, state and local government web resources and services.